| time (UTC) | temp C | wind direction | speed KPH | gust KPH | rain 1hr cm | rain 24hr cm | rain mn cm | humidity % | barometer mb |
| 20260504020617 | 25 | 53 | 0.0 | 3.2 | 0.00 | 0.00 | 0.00 | 42 | 1007.5 |
| 20260504020117 | 25 | 93 | 0.0 | 3.2 | 0.00 | 0.00 | 0.00 | 42 | 1007.5 |
| 20260504015617 | 25 | 80 | 1.6 | 3.2 | 0.00 | 0.00 | 0.00 | 42 | 1007.6 |
| 20260504015117 | 25 | 56 | 1.6 | 4.8 | 0.00 | 0.00 | 0.00 | 41 | 1007.4 |
| 20260504014617 | 26 | 76 | 3.2 | 3.2 | 0.00 | 0.00 | 0.00 | 41 | 1007.4 |
| 20260504014117 | 26 | 327 | 4.8 | 9.7 | 0.00 | 0.00 | 0.00 | 40 | 1007.6 |
| 20260504013616 | 26 | 62 | 1.6 | 3.2 | 0.00 | 0.00 | 0.00 | 40 | 1007.4 |
| 20260504013118 | 26 | 126 | 1.6 | 3.2 | 0.00 | 0.00 | 0.00 | 39 | 1007.4 |
| 20260504012618 | 27 | 0.0 | 0.0 | 0.00 | 0.00 | 0.00 | 38 | 1007.4 | |
| 20260504012137 | 27 | 119 | 1.6 | 11.3 | 0.00 | 0.00 | 0.00 | 37 | 1007.5 |
| 20260504011617 | 27 | 16 | 3.2 | 6.4 | 0.00 | 0.00 | 0.00 | 36 | 1007.5 |
| 20260504011117 | 28 | 76 | 3.2 | 4.8 | 0.00 | 0.00 | 0.00 | 36 | 1007.6 |
| 20260504010717 | 27 | 50 | 0.0 | 1.6 | 0.00 | 0.00 | 0.00 | 36 | 1007.6 |
| 20260504010117 | 27 | 144 | 3.2 | 6.4 | 0.00 | 0.00 | 0.00 | 35 | 1007.8 |
| 20260504005617 | 28 | 70 | 1.6 | 3.2 | 0.00 | 0.00 | 0.00 | 37 | 1007.9 |
| 20260504005117 | 28 | 75 | 1.6 | 3.2 | 0.00 | 0.00 | 0.00 | 36 | 1007.8 |
| 20260504004617 | 27 | 107 | 0.0 | 1.6 | 0.00 | 0.00 | 0.00 | 38 | 1007.8 |
| 20260504004117 | 27 | 109 | 1.6 | 3.2 | 0.00 | 0.00 | 0.00 | 38 | 1007.9 |
| 20260504003617 | 27 | 103 | 1.6 | 3.2 | 0.00 | 0.00 | 0.00 | 38 | 1008.0 |
| 20260504003118 | 27 | 85 | 1.6 | 1.6 | 0.00 | 0.00 | 0.00 | 39 | 1007.9 |
| 20260504002617 | 27 | 102 | 0.0 | 1.6 | 0.00 | 0.00 | 0.00 | 38 | 1008.0 |
| 20260504002117 | 27 | 68 | 1.6 | 3.2 | 0.00 | 0.00 | 0.00 | 38 | 1008.0 |
| 20260504001617 | 27 | 53 | 3.2 | 6.4 | 0.00 | 0.00 | 0.00 | 38 | 1008.1 |
| 20260504001117 | 27 | 87 | 1.6 | 3.2 | 0.00 | 0.00 | 0.00 | 39 | 1008.2 |
| 20260504000637 | 27 | 43 | 4.8 | 4.8 | 0.00 | 0.00 | 0.00 | 39 | 1008.2 |
| 20260504000117 | 27 | 135 | 1.6 | 6.4 | 0.00 | 0.00 | 0.00 | 38 | 1008.3 |
| 20260503235618 | 27 | 105 | 0.0 | 3.2 | 0.00 | 0.00 | 0.00 | 39 | 1008.4 |
| 20260503235117 | 27 | 106 | 1.6 | 3.2 | 0.00 | 0.00 | 0.00 | 38 | 1008.4 |
| 20260503234617 | 27 | 42 | 3.2 | 4.8 | 0.00 | 0.00 | 0.00 | 38 | 1008.3 |
| 20260503234117 | 27 | 96 | 1.6 | 4.8 | 0.00 | 0.00 | 0.00 | 37 | 1008.4 |
| 20260503233617 | 28 | 233 | 3.2 | 9.7 | 0.00 | 0.00 | 0.00 | 36 | 1008.6 |
| 20260503233117 | 27 | 43 | 1.6 | 6.4 | 0.00 | 0.00 | 0.00 | 38 | 1008.5 |
| 20260503232617 | 28 | 28 | 1.6 | 3.2 | 0.00 | 0.00 | 0.00 | 37 | 1008.6 |
| 20260503232117 | 27 | 0.0 | 0.0 | 0.00 | 0.00 | 0.00 | 37 | 1008.8 | |
| 20260503231617 | 27 | 93 | 1.6 | 4.8 | 0.00 | 0.00 | 0.00 | 37 | 1008.8 |
| 20260503231117 | 27 | 81 | 1.6 | 4.8 | 0.00 | 0.00 | 0.00 | 36 | 1008.8 |
| 20260503230618 | 28 | 52 | 3.2 | 6.4 | 0.00 | 0.00 | 0.00 | 36 | 1008.9 |
| 20260503230118 | 27 | 100 | 4.8 | 4.8 | 0.00 | 0.00 | 0.00 | 37 | 1008.9 |
| 20260503225637 | 27 | 296 | 4.8 | 9.7 | 0.00 | 0.00 | 0.00 | 37 | 1009.0 |
| 20260503225117 | 27 | 21 | 3.2 | 6.4 | 0.00 | 0.00 | 0.00 | 38 | 1009.2 |
| 20260503224637 | 27 | 332 | 1.6 | 11.3 | 0.00 | 0.00 | 0.00 | 38 | 1009.1 |
| 20260503224117 | 27 | 315 | 0.0 | 3.2 | 0.00 | 0.00 | 0.00 | 38 | 1009.2 |
| 20260503223617 | 27 | 77 | 1.6 | 6.4 | 0.00 | 0.00 | 0.00 | 39 | 1009.2 |
| 20260503223117 | 27 | 82 | 1.6 | 3.2 | 0.00 | 0.00 | 0.00 | 39 | 1009.4 |
| 20260503222617 | 27 | 107 | 1.6 | 3.2 | 0.00 | 0.00 | 0.00 | 38 | 1009.4 |
| 20260503222118 | 27 | 157 | 4.8 | 12.9 | 0.00 | 0.00 | 0.00 | 39 | 1009.3 |
| 20260503221617 | 27 | 37 | 1.6 | 6.4 | 0.00 | 0.00 | 0.00 | 39 | 1009.5 |
| 20260503221117 | 27 | 108 | 0.0 | 1.6 | 0.00 | 0.00 | 0.00 | 39 | 1009.7 |
| 20260503220617 | 27 | 68 | 3.2 | 4.8 | 0.00 | 0.00 | 0.00 | 39 | 1009.8 |
| 20260503220117 | 27 | 23 | 1.6 | 4.8 | 0.00 | 0.00 | 0.00 | 38 | 1009.7 |
| 20260503215617 | 26 | 96 | 1.6 | 3.2 | 0.00 | 0.00 | 0.00 | 39 | 1009.7 |
| 20260503215137 | 26 | 88 | 1.6 | 4.8 | 0.00 | 0.00 | 0.00 | 39 | 1009.8 |
| 20260503214616 | 27 | 42 | 3.2 | 6.4 | 0.00 | 0.00 | 0.00 | 39 | 1009.8 |
| 20260503214117 | 26 | 95 | 0.0 | 3.2 | 0.00 | 0.00 | 0.00 | 40 | 1009.8 |
| 20260503213617 | 26 | 67 | 4.8 | 9.7 | 0.00 | 0.00 | 0.00 | 39 | 1009.8 |
| 20260503213117 | 26 | 96 | 3.2 | 4.8 | 0.00 | 0.00 | 0.00 | 39 | 1009.9 |
| 20260503212637 | 26 | 89 | 1.6 | 3.2 | 0.00 | 0.00 | 0.00 | 40 | 1010.1 |
| 20260503212117 | 26 | 126 | 1.6 | 4.8 | 0.00 | 0.00 | 0.00 | 40 | 1010.2 |
| 20260503211617 | 26 | 88 | 0.0 | 3.2 | 0.00 | 0.00 | 0.00 | 39 | 1010.2 |
| 20260503211117 | 26 | 115 | 1.6 | 4.8 | 0.00 | 0.00 | 0.00 | 39 | 1010.2 |
| 20260503210617 | 26 | 124 | 1.6 | 3.2 | 0.00 | 0.00 | 0.00 | 39 | 1010.1 |
| 20260503210117 | 26 | 93 | 1.6 | 4.8 | 0.00 | 0.00 | 0.00 | 40 | 1010.3 |
| 20260503205657 | 26 | 18 | 3.2 | 6.4 | 0.00 | 0.00 | 0.00 | 40 | 1010.3 |
| 20260503205137 | 26 | 124 | 1.6 | 3.2 | 0.00 | 0.00 | 0.00 | 42 | 1010.4 |
| 20260503204617 | 25 | 87 | 1.6 | 3.2 | 0.00 | 0.00 | 0.00 | 44 | 1010.4 |
| 20260503204117 | 25 | 95 | 1.6 | 3.2 | 0.00 | 0.00 | 0.00 | 44 | 1010.5 |
| 20260503203657 | 25 | 95 | 1.6 | 4.8 | 0.00 | 0.00 | 0.00 | 44 | 1010.6 |
| 20260503203117 | 25 | 81 | 3.2 | 6.4 | 0.00 | 0.00 | 0.00 | 44 | 1010.7 |
| 20260503202617 | 25 | 177 | 3.2 | 4.8 | 0.00 | 0.00 | 0.00 | 44 | 1010.6 |
| 20260503202117 | 25 | 322 | 3.2 | 11.3 | 0.00 | 0.00 | 0.00 | 44 | 1010.8 |
| 20260503201617 | 25 | 153 | 3.2 | 9.7 | 0.00 | 0.00 | 0.00 | 45 | 1010.8 |
| 20260503201118 | 25 | 96 | 0.0 | 3.2 | 0.00 | 0.00 | 0.00 | 45 | 1010.9 |
| 20260503200657 | 24 | 345 | 1.6 | 9.7 | 0.00 | 0.00 | 0.00 | 46 | 1010.9 |
| 20260503200117 | 24 | 12 | 1.6 | 4.8 | 0.00 | 0.00 | 0.00 | 47 | 1011.0 |
| 20260503195617 | 23 | 119 | 3.2 | 6.4 | 0.00 | 0.00 | 0.00 | 48 | 1011.1 |
| 20260503195117 | 24 | 317 | 6.4 | 11.3 | 0.00 | 0.00 | 0.00 | 47 | 1011.2 |
| 20260503194657 | 24 | 328 | 4.8 | 11.3 | 0.00 | 0.00 | 0.00 | 46 | 1011.1 |
| 20260503194117 | 23 | 45 | 1.6 | 9.7 | 0.00 | 0.00 | 0.00 | 49 | 1011.3 |
| 20260503193617 | 23 | 72 | 4.8 | 11.3 | 0.00 | 0.00 | 0.00 | 50 | 1011.4 |
| 20260503193117 | 23 | 145 | 1.6 | 3.2 | 0.00 | 0.00 | 0.00 | 51 | 1011.4 |
| 20260503192618 | 23 | 110 | 1.6 | 3.2 | 0.00 | 0.00 | 0.00 | 52 | 1011.5 |
| 20260503192117 | 23 | 297 | 3.2 | 9.7 | 0.00 | 0.00 | 0.00 | 52 | 1011.7 |
| 20260503191618 | 23 | 48 | 3.2 | 6.4 | 0.00 | 0.00 | 0.00 | 53 | 1011.8 |
| 20260503191117 | 23 | 296 | 3.2 | 11.3 | 0.00 | 0.00 | 0.00 | 51 | 1011.7 |
| 20260503190657 | 22 | 38 | 3.2 | 4.8 | 0.00 | 0.00 | 0.00 | 53 | 1011.7 |
| 20260503190117 | 23 | 71 | 1.6 | 4.8 | 0.00 | 0.00 | 0.00 | 51 | 1011.9 |
| 20260503185617 | 22 | 0.0 | 0.0 | 0.00 | 0.00 | 0.00 | 51 | 1012.0 | |
| 20260503185117 | 22 | 62 | 3.2 | 9.7 | 0.00 | 0.00 | 0.00 | 53 | 1011.9 |
| 20260503184617 | 22 | 80 | 4.8 | 6.4 | 0.00 | 0.00 | 0.00 | 51 | 1012.0 |
| 20260503184116 | 22 | 41 | 3.2 | 9.7 | 0.00 | 0.00 | 0.00 | 53 | 1012.3 |
| 20260503183617 | 22 | 73 | 1.6 | 3.2 | 0.00 | 0.00 | 0.00 | 53 | 1012.1 |
| 20260503183118 | 21 | 64 | 3.2 | 4.8 | 0.00 | 0.00 | 0.00 | 53 | 1012.3 |
| 20260503182617 | 21 | 56 | 3.2 | 4.8 | 0.00 | 0.00 | 0.00 | 54 | 1012.3 |
| 20260503182117 | 21 | 63 | 3.2 | 4.8 | 0.00 | 0.00 | 0.00 | 54 | 1012.4 |
| 20260503181618 | 22 | 57 | 3.2 | 6.4 | 0.00 | 0.00 | 0.00 | 54 | 1012.4 |
| 20260503181117 | 21 | 0.0 | 0.0 | 0.00 | 0.00 | 0.00 | 57 | 1012.4 | |
| 20260503180637 | 21 | 201 | 1.6 | 6.4 | 0.00 | 0.00 | 0.00 | 56 | 1012.4 |
| 20260503180117 | 21 | 78 | 3.2 | 4.8 | 0.00 | 0.00 | 0.00 | 57 | 1012.4 |
| 20260503175617 | 21 | 42 | 1.6 | 4.8 | 0.00 | 0.00 | 0.00 | 58 | 1012.4 |
| 20260503175117 | 21 | 143 | 1.6 | 3.2 | 0.00 | 0.00 | 0.00 | 57 | 1012.6 |
| 20260503174617 | 21 | 77 | 4.8 | 9.7 | 0.00 | 0.00 | 0.00 | 59 | 1012.5 |
| 20260503174137 | 21 | 0.0 | 0.0 | 0.00 | 0.00 | 0.00 | 60 | 1012.5 | |
| 20260503173617 | 20 | 293 | 1.6 | 4.8 | 0.00 | 0.00 | 0.00 | 61 | 1012.7 |
| 20260503173117 | 20 | 100 | 0.0 | 1.6 | 0.00 | 0.00 | 0.00 | 62 | 1012.6 |
| 20260503172617 | 20 | 300 | 3.2 | 6.4 | 0.00 | 0.00 | 0.00 | 63 | 1012.6 |
| 20260503172117 | 20 | 89 | 1.6 | 4.8 | 0.00 | 0.00 | 0.00 | 65 | 1012.8 |
| 20260503171617 | 19 | 82 | 3.2 | 4.8 | 0.00 | 0.00 | 0.00 | 66 | 1012.8 |
| 20260503171117 | 19 | 93 | 0.0 | 1.6 | 0.00 | 0.00 | 0.00 | 67 | 1012.8 |
| 20260503170618 | 18 | 76 | 1.6 | 4.8 | 0.00 | 0.00 | 0.00 | 68 | 1012.8 |
| 20260503170137 | 18 | 83 | 0.0 | 3.2 | 0.00 | 0.00 | 0.00 | 67 | 1012.9 |
| 20260503160117 | 16 | 307 | 3.2 | 6.4 | 0.00 | 0.00 | 0.00 | 78 | 1013.2 |
| 20260503150637 | 15 | 0.0 | 0.0 | 0.00 | 0.00 | 0.00 | 87 | 1013.3 | |
| 20260503150117 | 14 | 0.0 | 0.0 | 0.00 | 0.00 | 0.00 | 89 | 1013.3 | |
| 20260503140117 | 11 | 0.0 | 0.0 | 0.00 | 0.00 | 0.00 | 99 | 1013.3 | |
| 20260503131118 | 10 | 0.0 | 0.0 | 0.00 | 0.00 | 0.00 | 98 | 1013.4 | |
| 20260503130617 | 10 | 0.0 | 0.0 | 0.00 | 0.00 | 0.00 | 98 | 1013.4 | |
| 20260503130118 | 10 | 0.0 | 0.0 | 0.00 | 0.00 | 0.00 | 98 | 1013.1 | |
| 20260503120117 | 11 | 0.0 | 0.0 | 0.00 | 0.00 | 0.00 | 96 | 1013.3 | |
| 20260503110617 | 11 | 0.0 | 0.0 | 0.00 | 0.00 | 0.00 | 95 | 1013.4 | |
| 20260503110156 | 11 | 0.0 | 0.0 | 0.00 | 0.00 | 0.00 | 95 | 1013.4 | |
| 20260503100118 | 11 | 0.0 | 0.0 | 0.00 | 0.00 | 0.00 | 94 | 1013.5 | |
| 20260503090117 | 12 | 0.0 | 0.0 | 0.00 | 0.00 | 0.00 | 90 | 1013.5 | |
| 20260503081617 | 13 | 0.0 | 0.0 | 0.00 | 0.00 | 0.00 | 84 | 1013.7 | |
| 20260503081118 | 13 | 0.0 | 0.0 | 0.00 | 0.00 | 0.00 | 82 | 1013.7 | |
| 20260503080617 | 13 | 0.0 | 0.0 | 0.00 | 0.00 | 0.00 | 81 | 1013.6 | |
| 20260503080117 | 13 | 0.0 | 0.0 | 0.00 | 0.00 | 0.00 | 79 | 1013.6 | |
| 20260503072617 | 13 | 0.0 | 0.0 | 0.00 | 0.00 | 0.00 | 74 | 1013.5 | |
| 20260503072117 | 14 | 0.0 | 0.0 | 0.00 | 0.00 | 0.00 | 74 | 1013.4 | |
| 20260503071617 | 14 | 0.0 | 0.0 | 0.00 | 0.00 | 0.00 | 74 | 1013.4 | |
| 20260503071117 | 14 | 0.0 | 0.0 | 0.00 | 0.00 | 0.00 | 73 | 1013.4 | |
| 20260503070617 | 14 | 0.0 | 0.0 | 0.00 | 0.00 | 0.00 | 73 | 1013.5 | |
| 20260503070117 | 14 | 0.0 | 0.0 | 0.00 | 0.00 | 0.00 | 71 | 1013.4 | |
| 20260503060117 | 15 | 0.0 | 0.0 | 0.00 | 0.00 | 0.00 | 69 | 1013.1 | |
| 20260503055117 | 16 | 0.0 | 0.0 | 0.00 | 0.00 | 0.00 | 66 | 1013.0 | |
| 20260503054617 | 16 | 0.0 | 0.0 | 0.00 | 0.00 | 0.00 | 65 | 1013.1 | |
| 20260503054118 | 16 | 0.0 | 0.0 | 0.00 | 0.00 | 0.00 | 66 | 1013.0 | |
| 20260503053617 | 17 | 0.0 | 0.0 | 0.00 | 0.00 | 0.00 | 65 | 1012.9 | |
| 20260503053117 | 17 | 0.0 | 0.0 | 0.00 | 0.00 | 0.00 | 62 | 1012.9 | |
| 20260503052618 | 17 | 0.0 | 0.0 | 0.00 | 0.00 | 0.00 | 63 | 1013.0 | |
| 20260503052117 | 17 | 0.0 | 0.0 | 0.00 | 0.00 | 0.00 | 62 | 1012.9 | |
| 20260503051617 | 17 | 0.0 | 0.0 | 0.00 | 0.00 | 0.00 | 62 | 1012.9 | |
| 20260503051117 | 17 | 0.0 | 0.0 | 0.00 | 0.00 | 0.00 | 64 | 1012.8 | |
| 20260503050617 | 17 | 0.0 | 0.0 | 0.00 | 0.00 | 0.00 | 66 | 1012.9 | |
| 20260503050117 | 17 | 0.0 | 0.0 | 0.00 | 0.00 | 0.00 | 67 | 1012.7 | |
| 20260503045616 | 17 | 0.0 | 0.0 | 0.00 | 0.00 | 0.00 | 69 | 1012.7 | |
| 20260503045138 | 17 | 87 | 0.0 | 1.6 | 0.00 | 0.00 | 0.00 | 70 | 1012.6 |
| 20260503044617 | 17 | 0.0 | 0.0 | 0.00 | 0.00 | 0.00 | 70 | 1012.5 | |
| 20260503044117 | 17 | 0.0 | 0.0 | 0.00 | 0.00 | 0.00 | 68 | 1012.6 | |
| 20260503043617 | 17 | 0.0 | 0.0 | 0.00 | 0.00 | 0.00 | 68 | 1012.6 | |
| 20260503043117 | 17 | 0.0 | 0.0 | 0.00 | 0.00 | 0.00 | 67 | 1012.6 | |
| 20260503042617 | 17 | 0.0 | 0.0 | 0.00 | 0.00 | 0.00 | 67 | 1012.5 | |
| 20260503042117 | 18 | 0.0 | 0.0 | 0.00 | 0.00 | 0.00 | 66 | 1012.7 | |
| 20260503041617 | 18 | 0.0 | 0.0 | 0.00 | 0.00 | 0.00 | 66 | 1012.4 | |
| 20260503041117 | 18 | 0.0 | 0.0 | 0.00 | 0.00 | 0.00 | 66 | 1012.4 | |
| 20260503040657 | 18 | 0.0 | 0.0 | 0.00 | 0.00 | 0.00 | 65 | 1012.3 | |
| 20260503040117 | 18 | 0.0 | 0.0 | 0.00 | 0.00 | 0.00 | 63 | 1012.1 | |
| 20260503035617 | 18 | 0.0 | 0.0 | 0.00 | 0.00 | 0.00 | 63 | 1012.2 | |
| 20260503035117 | 18 | 102 | 0.0 | 1.6 | 0.00 | 0.00 | 0.00 | 63 | 1012.0 |
| 20260503034617 | 18 | 0.0 | 0.0 | 0.00 | 0.00 | 0.00 | 64 | 1011.9 | |
| 20260503034117 | 19 | 0.0 | 0.0 | 0.00 | 0.00 | 0.00 | 64 | 1011.9 | |
| 20260503033637 | 19 | 84 | 1.6 | 4.8 | 0.00 | 0.00 | 0.00 | 61 | 1011.9 |
| 20260503033117 | 19 | 0.0 | 0.0 | 0.00 | 0.00 | 0.00 | 63 | 1011.8 | |
| 20260503032616 | 20 | 0.0 | 0.0 | 0.00 | 0.00 | 0.00 | 62 | 1011.7 | |
| 20260503032117 | 20 | 0.0 | 0.0 | 0.00 | 0.00 | 0.00 | 61 | 1011.6 | |
| 20260503031638 | 20 | 0.0 | 0.0 | 0.00 | 0.00 | 0.00 | 61 | 1011.8 | |
| 20260503031137 | 20 | 0.0 | 0.0 | 0.00 | 0.00 | 0.00 | 61 | 1011.6 | |
| 20260503030617 | 20 | 0.0 | 0.0 | 0.00 | 0.00 | 0.00 | 59 | 1011.5 | |
| 20260503030117 | 20 | 74 | 1.6 | 3.2 | 0.00 | 0.00 | 0.00 | 58 | 1011.6 |
| 20260503025617 | 21 | 0.0 | 0.0 | 0.00 | 0.00 | 0.00 | 58 | 1011.4 | |
| 20260503025117 | 21 | 0.0 | 0.0 | 0.00 | 0.00 | 0.00 | 58 | 1011.3 | |
| 20260503024617 | 21 | 80 | 1.6 | 3.2 | 0.00 | 0.00 | 0.00 | 57 | 1011.3 |
| 20260503024137 | 21 | 87 | 1.6 | 4.8 | 0.00 | 0.00 | 0.00 | 56 | 1011.3 |
| 20260503023618 | 21 | 0.0 | 0.0 | 0.00 | 0.00 | 0.00 | 57 | 1011.2 | |
| 20260503023118 | 21 | 80 | 1.6 | 3.2 | 0.00 | 0.00 | 0.00 | 55 | 1011.1 |
| 20260503022618 | 22 | 2 | 1.6 | 3.2 | 0.00 | 0.00 | 0.00 | 55 | 1011.2 |
| 20260503022117 | 22 | 0.0 | 0.0 | 0.00 | 0.00 | 0.00 | 54 | 1011.0 | |
| 20260503021617 | 22 | 79 | 0.0 | 1.6 | 0.00 | 0.00 | 0.00 | 54 | 1011.1 |
| 20260503021117 | 22 | 75 | 1.6 | 3.2 | 0.00 | 0.00 | 0.00 | 53 | 1011.2 |